FW0954 Weather Reports


time (UTC)temp
C
wind
direction
speed
KPH
gust
KPH
rain 1hr
cm
rain 24hr
cm
rain mn
cm
humidity
%
barometer
mb
20260503225503 27 176 8.0 17.7 0.00 0.00 0.00 41 1015.9
20260503225002 27 193 8.0 20.9 0.00 0.00 0.00 41 1016.0
20260503224503 27 192 8.0 20.9 0.00 0.00 0.00 41 1016.1
20260503224002 27 187 8.0 20.9 0.00 0.00 0.00 41 1016.0
20260503223503 27 197 8.0 17.7 0.00 0.00 0.00 41 1016.1
20260503223003 28 204 6.4 14.5 0.00 0.00 0.00 40 1016.1
20260503222502 28 188 6.4 14.5 0.00 0.00 0.00 39 1016.1
20260503221503 28 214 3.2 14.5 0.00 0.00 0.00 39 1016.4
20260503221003 28 208 4.8 16.1 0.00 0.00 0.00 38 1016.3
20260503220003 28 235 6.4 17.7 0.00 0.00 0.00 40 1016.5
20260503215503 28 226 6.4 19.3 0.00 0.00 0.00 39 1016.4
20260503215002 28 198 6.4 19.3 0.00 0.00 0.00 38 1016.6
20260503214503 28 195 6.4 17.7 0.00 0.00 0.00 40 1016.7
20260503214003 28 196 4.8 17.7 0.00 0.00 0.00 39 1016.7
20260503213503 28 202 4.8 12.9 0.00 0.00 0.00 39 1016.8
20260503212503 28 203 8.0 19.3 0.00 0.00 0.00 37 1016.9
20260503212002 28 198 8.0 19.3 0.00 0.00 0.00 38 1017.0
20260503211503 28 200 8.0 19.3 0.00 0.00 0.00 38 1017.0
20260503210502 28 196 6.4 16.1 0.00 0.00 0.00 36 1017.2
20260503210003 28 195 6.4 16.1 0.00 0.00 0.00 35 1017.3
20260503205503 28 197 6.4 14.5 0.00 0.00 0.00 36 1017.4
20260503205002 28 192 6.4 14.5 0.00 0.00 0.00 38 1017.4
20260503204503 28 202 4.8 14.5 0.00 0.00 0.00 37 1017.5
20260503203503 28 215 6.4 20.9 0.00 0.00 0.00 36 1017.7
20260503203002 28 194 8.0 20.9 0.00 0.00 0.00 35 1017.8
20260503202002 28 203 4.8 16.1 0.00 0.00 0.00 37 1018.0
20260503201503 28 197 6.4 14.5 0.00 0.00 0.00 38 1018.1
20260503201003 28 205 4.8 17.7 0.00 0.00 0.00 37 1018.1
20260503200503 28 205 4.8 17.7 0.00 0.00 0.00 37 1018.3
20260503200003 28 191 6.4 16.1 0.00 0.00 0.00 38 1018.3
20260503195503 28 203 6.4 14.5 0.00 0.00 0.00 37 1018.4
20260503195003 28 206 6.4 17.7 0.00 0.00 0.00 37 1018.5
20260503194003 28 260 4.8 14.5 0.00 0.00 0.00 39 1018.7
20260503193003 28 258 4.8 17.7 0.00 0.00 0.00 39 1018.8
20260503192503 28 267 4.8 17.7 0.00 0.00 0.00 39 1018.9
20260503192003 28 234 4.8 12.9 0.00 0.00 0.00 41 1018.9
20260503191503 28 224 4.8 12.9 0.00 0.00 0.00 39 1019.0
20260503190502 28 217 4.8 14.5 0.00 0.00 0.00 39 1019.1
20260503190003 28 238 4.8 14.5 0.00 0.00 0.00 40 1019.2
20260503185503 28 240 6.4 16.1 0.00 0.00 0.00 41 1019.2
20260503185003 28 213 6.4 16.1 0.00 0.00 0.00 41 1019.3
20260503184003 28 239 3.2 12.9 0.00 0.00 0.00 43 1019.5
20260503183502 28 222 6.4 20.9 0.00 0.00 0.00 42 1019.6
20260503183003 28 214 4.8 20.9 0.00 0.00 0.00 42 1019.8
20260503182503 28 223 3.2 14.5 0.00 0.00 0.00 43 1019.9
20260503182004 28 208 3.2 12.9 0.00 0.00 0.00 43 1019.9
20260503181504 28 234 3.2 11.3 0.00 0.00 0.00 44 1020.0
20260503180003 27 247 4.8 11.3 0.00 0.00 0.00 43 1020.3
20260503175503 27 217 4.8 14.5 0.00 0.00 0.00 45 1020.3
20260503175002 27 218 4.8 14.5 0.00 0.00 0.00 45 1020.4
20260503174503 27 240 4.8 16.1 0.00 0.00 0.00 45 1020.4
20260503174003 27 216 4.8 16.1 0.00 0.00 0.00 45 1020.5
20260503173503 27 221 6.4 16.1 0.00 0.00 0.00 45 1020.5
20260503173003 26 234 4.8 14.5 0.00 0.00 0.00 45 1020.6
20260503172503 26 261 4.8 16.1 0.00 0.00 0.00 48 1020.8
20260503172003 26 280 6.4 16.1 0.00 0.00 0.00 48 1020.8
20260503171503 26 248 4.8 14.5 0.00 0.00 0.00 47 1020.8
20260503171004 26 229 4.8 14.5 0.00 0.00 0.00 47 1020.9
20260503170503 26 258 3.2 11.3 0.00 0.00 0.00 46 1021.1
20260503151003 23 253 4.8 14.5 0.00 0.00 0.00 55 1021.4
20260503150503 23 249 4.8 12.9 0.00 0.00 0.00 55 1021.4
20260503072503 15 230 0.0 1.6 0.00 0.00 0.00 70 1020.2
20260503071504 15 196 0.0 1.6 0.00 0.00 0.00 70 1020.3
20260503071003 15 200 0.0 1.6 0.00 0.00 0.00 70 1020.3
20260503070503 15 229 0.0 1.6 0.00 0.00 0.00 70 1020.4
20260503054503 16 210 0.0 1.6 0.00 0.00 0.00 67 1020.1
20260503054003 16 210 0.0 1.6 0.00 0.00 0.00 66 1020.1
20260503053503 16 210 0.0 1.6 0.00 0.00 0.00 66 1020.2
20260503052004 16 198 0.0 4.8 0.00 0.00 0.00 67 1020.0
20260503051503 16 191 0.0 4.8 0.00 0.00 0.00 67 1020.1
20260503051003 16 175 0.0 1.6 0.00 0.00 0.00 67 1020.0
20260503050504 16 173 0.0 1.6 0.00 0.00 0.00 67 1020.0
20260503050005 16 174 0.0 1.6 0.00 0.00 0.00 67 1020.0
20260503045502 16 174 0.0 1.6 0.00 0.00 0.00 66 1020.0
20260503045002 16 173 0.0 1.6 0.00 0.00 0.00 66 1020.0
20260503044502 16 173 0.0 1.6 0.00 0.00 0.00 66 1020.0
20260503044001 17 174 0.0 3.2 0.00 0.00 0.00 65 1020.0
20260503043001 17 194 0.0 4.8 0.00 0.00 0.00 65 1020.1
20260503042501 17 192 0.0 4.8 0.00 0.00 0.00 65 1019.9
20260503041501 17 181 1.6 3.2 0.00 0.00 0.00 64 1020.0
20260503041001 17 176 1.6 3.2 0.00 0.00 0.00 65 1020.1
20260503040501 17 183 1.6 4.8 0.00 0.00 0.00 65 1020.1
20260503040002 17 185 1.6 4.8 0.00 0.00 0.00 65 1020.1
20260503035501 16 178 0.0 4.8 0.00 0.00 0.00 65 1020.1
20260503035001 17 171 0.0 3.2 0.00 0.00 0.00 65 1020.0
20260503034501 17 171 0.0 3.2 0.00 0.00 0.00 66 1020.1
20260503034001 17 170 0.0 1.6 0.00 0.00 0.00 65 1019.9
20260503033501 17 178 0.0 3.2 0.00 0.00 0.00 65 1019.8
20260503033001 17 179 0.0 3.2 0.00 0.00 0.00 65 1019.8
20260503032501 17 181 0.0 1.6 0.00 0.00 0.00 65 1019.9
20260503032002 16 0 0.0 0.0 0.00 0.00 0.00 65 1019.9
20260503031501 16 0 0.0 0.0 0.00 0.00 0.00 64 1019.8
20260503031002 17 0 0.0 0.0 0.00 0.00 0.00 64 1019.6
20260503030501 17 0 0.0 0.0 0.00 0.00 0.00 63 1019.6
20260503030002 17 0 0.0 0.0 0.00 0.00 0.00 61 1019.6
20260503025501 17 0 0.0 0.0 0.00 0.00 0.00 61 1019.6
20260503025002 17 0 0.0 0.0 0.00 0.00 0.00 61 1019.5
20260503024501 17 0 0.0 0.0 0.00 0.00 0.00 60 1019.4
20260503024002 17 0 0.0 0.0 0.00 0.00 0.00 60 1019.4
20260503023501 17 0 0.0 0.0 0.00 0.00 0.00 60 1019.4
20260503023002 18 0 0.0 0.0 0.00 0.00 0.00 59 1019.4
20260503022501 18 0 0.0 0.0 0.00 0.00 0.00 59 1019.3
20260503022002 18 178 0.0 1.6 0.00 0.00 0.00 58 1019.3
20260503020002 18 0 0.0 0.0 0.00 0.00 0.00 57 1019.0
20260503015001 19 0 0.0 0.0 0.00 0.00 0.00 55 1019.1
20260503014502 20 178 0.0 1.6 0.00 0.00 0.00 54 1019.1
20260503014002 20 178 0.0 1.6 0.00 0.00 0.00 53 1019.1
20260503012502 21 0 0.0 0.0 0.00 0.00 0.00 51 1019.0
20260503012002 21 0 0.0 0.0 0.00 0.00 0.00 49 1018.9
20260503011503 21 0 0.0 0.0 0.00 0.00 0.00 48 1018.8
20260503011001 21 0 0.0 0.0 0.00 0.00 0.00 46 1018.8
20260503010502 22 0 0.0 0.0 0.00 0.00 0.00 45 1018.7
20260503010002 22 178 0.0 3.2 0.00 0.00 0.00 45 1018.7
20260503005501 23 178 0.0 3.2 0.00 0.00 0.00 44 1018.7
20260503005002 23 173 0.0 3.2 0.00 0.00 0.00 43 1018.6
20260503004502 25 192 0.0 3.2 0.00 0.00 0.00 42 1018.6
20260503003502 26 144 0.0 1.6 0.00 0.00 0.00 39 1018.6
20260503003001 27 124 0.0 1.6 0.00 0.00 0.00 39 1018.5
20260503002502 27 0 0.0 0.0 0.00 0.00 0.00 38 1018.4
20260503001502 27 115 0.0 1.6 0.00 0.00 0.00 38 1018.5
20260503001001 26 115 0.0 1.6 0.00 0.00 0.00 40 1018.5
20260503000002 26 0 0.0 0.0 0.00 0.00 0.00 42 1018.5
20260502235502 26 115 0.0 1.6 0.00 0.00 0.00 40 1018.5
20260502235002 26 115 0.0 1.6 0.00 0.00 0.00 42 1018.6
20260502234502 26 116 0.0 1.6 0.00 0.00 0.00 42 1018.6
20260502234002 26 117 0.0 1.6 0.00 0.00 0.00 40 1018.7
20260502233502 26 117 0.0 1.6 0.00 0.00 0.00 42 1018.7
20260502233002 26 0 0.0 0.0 0.00 0.00 0.00 41 1018.6
20260502232502 26 0 0.0 0.0 0.00 0.00 0.00 42 1018.7
20260502232002 25 118 0.0 1.6 0.00 0.00 0.00 42 1018.7
20260502231502 25 117 0.0 1.6 0.00 0.00 0.00 44 1018.7
20260502231002 25 110 0.0 1.6 0.00 0.00 0.00 44 1018.8
20260502230002 25 125 0.0 4.8 0.00 0.00 0.00 44 1018.8